This demonstration page uses our WeatherBlox Daily Observations layout. Learn more.

Left ArrowRight Arrow

Hourly Observations for March 17, 2021

Temp ( °F °C ) Dew Point ( °F °C ) Humidity (%) Winds ( mph kmh ) Pressure ( in mb ) Visibility ( mi km ) Precip ( " mm )
12:51 am 00:51 Clear 34 1.1 23 -5 64 64 ESE 3 6 30.07 1018 10 16 N/A
1:51 am 01:51 Clear 34 1.1 24 -4.4 67 67 N N/A 30.09 1019 10 16 N/A
2:51 am 02:51 Clear 32 undefined 23 -5 69 69 N N/A 30.09 1019 10 16 N/A
3:51 am 03:51 Clear 29 -1.7 23 -5 78 78 N N/A 30.08 1019 10 16 N/A
4:51 am 04:51 Clear 29 -1.7 22 -5.6 75 75 N N/A 30.09 1019 10 16 N/A
5:51 am 05:51 Clear 29 -1.7 22 -5.6 75 75 ESE 3 6 30.11 1020 10 16 N/A
6:51 am 06:51 Sunny 29 -1.7 21 -6.1 72 72 N N/A 30.13 1020 10 16 N/A
7:51 am 07:51 Sunny 40 4.4 25 -3.9 55 55 N N/A 30.14 1021 10 16 N/A
8:51 am 08:51 Sunny 43 6.1 25 -3.9 49 49 SSW 5 7 30.14 1021 10 16 N/A
9:51 am 09:51 Sunny 47 8.3 25 -3.9 42 42 N N/A 30.14 1021 10 16 N/A
10:51 am 10:51 Sunny 51 10.6 24 -4.4 35 35 N N/A 30.13 1020 10 16 N/A
11:51 am 11:51 Sunny 55 12.8 25 -3.9 31 31 N N/A 30.11 1020 10 16 N/A
12:51 pm 12:51 Sunny 58 14.4 26 -3.3 29 29 W 5 7 30.09 1019 10 16 N/A
1:51 pm 13:51 Sunny 61 16.1 27 -2.8 27 27 SW 6 9 30.05 1018 10 16 N/A
2:51 pm 14:51 Sunny 64 17.8 27 -2.8 25 25 NW 7 11 30.01 1016 10 16 N/A
3:51 pm 15:51 Sunny 65 18.3 27 -2.8 24 24 WNW 6 9 30.00 1016 10 16 N/A
4:51 pm 16:51 Sunny 67 19.4 24 -4.4 20 20 W 7 11 29.98 1015 10 16 N/A
5:51 pm 17:51 Sunny 66 18.9 21 -6.1 18 18 W 7 11 29.98 1015 10 16 N/A
6:51 pm 18:51 Clear 60 15.6 25 -3.9 26 26 W 6 9 30.01 1016 10 16 N/A
7:51 pm 19:51 Clear 54 12.2 23 -5 30 30 NNW 6 9 30.01 1016 10 16 N/A
8:51 pm 20:51 Clear 51 10.6 24 -4.4 35 35 NW 6 9 30.04 1017 10 16 N/A
9:51 pm 21:51 Clear 50 10 25 -3.9 38 38 NE 3 6 30.04 1017 10 16 N/A
10:51 pm 22:51 Clear 50 10 25 -3.9 38 38 E 3 6 30.04 1017 10 16 N/A
11:51 pm 23:51 Clear 46 7.8 25 -3.9 44 44 S 6 9 30.05 1018 10 16 N/A

Powered by AerisWeather